Simultaneous Nadir Overpasses (SNOs) Predictions

Prediction of SNOs between NOAA-20 and NOAA-19 Satellite Orbit:

Table of predicted SNOs for the next 14.0 days since TLE Epoch: 7/4/2020
Index Date (NOAA-20) Time (NOAA-20) Lat,Lon (NOAA-20) SZA (NOAA-20 ) Date (NOAA-19) Time (NOAA-19) Lat,Lon (NOAA-19) SZA (NOAA-19 ) Distance(km) Time Diff (sec)
1 07/10/2020 02:28:22 -79.27, -69.45 121.01 07/10/2020 02:27:22 -79.23, -69.41 121.01 3.47 60
2 07/10/2020 03:19:07 79.26, 97.91 58.99 07/10/2020 03:18:16 79.24, 97.95 58.99 1.64 51
3 07/10/2020 04:09:52 -79.27, -94.86 121.00 07/10/2020 04:09:22 -79.25, -94.76 121.01 2.88 30
4 07/10/2020 05:00:37 79.26, 72.51 59.00 07/10/2020 05:00:16 79.26, 72.60 59.00 2.02 21
5 07/10/2020 05:51:22 -79.27,-120.27 120.98 07/10/2020 05:51:22 -79.27,-120.10 121.00 3.47 0
6 07/10/2020 06:42:07 79.27, 47.10 59.02 07/10/2020 06:42:17 79.25, 46.98 59.01 3.10 10
7 07/10/2020 07:32:52 -79.28,-145.68 120.96 07/10/2020 07:33:23 -79.26,-145.72 120.99 2.64 31
8 07/10/2020 08:23:37 79.27, 21.69 59.04 07/10/2020 08:24:17 79.27, 21.64 59.02 1.20 40
9 07/10/2020 09:14:22 -79.28,-171.09 120.95 07/10/2020 09:15:23 -79.27,-171.07 120.98 1.15 61
